Flag for China Weather past 2 weeks in Tianjin, Tianjin Municipality, China

Now
55 °F

Haze.


Feels Like: 55 °F
Forecast: 46 / 72 °F
Wind: 3 mph from East

Location: Tianjin / Zhangguizhu

Current Time: Apr 19, 2015 at 9:36:13 AM

Latest Report: Apr 19, 2015 at 9:00 AM


Visibility: 3 mi

Pressure: 29.98 "Hg

Humidity: 77%

Dew point: 48 °F

Location of TianjinLocation

Historic Weather in Tianjin — Graph

°F

Tianjin temperature yesterday

Maximum temperature yesterday: 72 °F (at 10:00 AM)
Minimum temperature yesterday: 55 °F (at 6:00 AM)
Average temperature yesterday: 61 °F

Past Weeks' High & Low Weather Summary

 TemperatureHumidityPressure
High81 °F (Apr 15, 3:00 PM)94% (Apr 12, 12:30 AM)30.57 "Hg (Apr 12, 12:30 AM)
Low34 °F (Apr 7, 4:00 AM)9% (Apr 16, 2:00 PM)29.33 "Hg (Apr 15, 4:00 PM)
Average55 °F51%30.05 "Hg
* Reported Apr 4 8:00 AM — Apr 19 8:30 AM, Tianjin, Weather by CustomWeather, © 2015

Note: Actual official high and low records may vary slightly from our data, if they occured in-between our weather recording intervals... More about our weather records

Advertising

Tianjin weather history for previous 24 hours

 ConditionsComfort  
Time TempWeatherWind HumidityBarometerVisibility
8:30 AM
Sun, Apr 19
55 °FHaze.3 mph77%29.95 "Hg3 mi
8:00 AM55 °FHaze.10 mph77%29.95 "Hg2 mi
7:30 AM55 °FLight rain. Haze.6 mph77%29.95 "Hg3 mi
7:00 AM55 °FLight rain. Haze.1 mph72%29.92 "Hg3 mi
6:30 AM55 °FFog.No wind77%29.92 "Hg3 mi
6:00 AM54 °FFog.1 mph82%29.92 "Hg3 mi
5:30 AM54 °FFog.1 mph82%29.89 "Hg3 mi
5:00 AM54 °FFog.1 mph82%29.89 "Hg3 mi
4:30 AM54 °FLight rain. Fog.1 mph82%29.89 "Hg3 mi
4:00 AM54 °FLight rain. Fog.1 mph77%29.89 "Hg3 mi
3:30 AM55 °FLight rain. Haze.3 mph72%29.89 "Hg3 mi
3:00 AM55 °FClear.3 mph67%29.92 "Hg4 mi
2:30 AM55 °FClear.3 mph67%29.89 "Hg4 mi
2:00 AM55 °FClear.3 mph67%29.89 "Hg4 mi
1:30 AM55 °FLight rain. Clear.3 mph63%29.89 "Hg4 mi
1:00 AM57 °FClear.6 mph59%29.89 "Hg4 mi
12:30 AM57 °FClear.3 mph63%29.92 "Hg4 mi
12:00 AM57 °FClear.6 mph67%29.89 "Hg4 mi
11:30 PM
Sat, Apr 18
57 °FLight rain. Clear.6 mph67%29.89 "Hg4 mi
11:00 PM57 °FLight rain. Clear.3 mph63%29.89 "Hg5 mi
10:30 PM57 °FClear.8 mph63%29.89 "Hg5 mi
10:00 PM57 °FClear.8 mph59%29.89 "Hg10 mi
9:30 PM57 °FPassing clouds.6 mph55%29.92 "HgN/A
9:00 PM57 °FClear.6 mph55%29.89 "Hg10 mi
8:30 PM57 °FClear.6 mph59%29.89 "Hg10 mi
8:00 PM59 °FClear.8 mph51%29.86 "Hg10 mi
7:30 PM59 °FClear.1 mph48%29.86 "Hg10 mi
7:00 PM59 °FPassing clouds.3 mph48%29.83 "HgN/A
6:30 PM59 °FLight rain. Clear.3 mph55%29.83 "Hg5 mi
6:00 PM59 °FLight rain. Clear.3 mph51%29.83 "HgN/A
5:30 PM59 °FSunny.3 mph51%29.83 "Hg10 mi
5:00 PM59 °FPassing clouds.6 mph48%29.83 "HgN/A
4:30 PM59 °FSunny.8 mph51%29.83 "Hg10 mi
4:00 PM59 °FClear.10 mph63%29.80 "Hg5 mi
3:30 PM59 °FClear.8 mph63%29.83 "Hg5 mi
3:00 PM61 °FClear.10 mph55%29.83 "Hg5 mi
2:30 PM63 °FClear.8 mph52%29.83 "Hg4 mi
2:00 PM63 °FClear.6 mph52%29.86 "Hg4 mi
1:30 PM63 °FClear.8 mph52%29.86 "Hg4 mi
1:00 PM66 °FClear.8 mph43%29.86 "Hg4 mi
12:30 PM66 °FClear.8 mph46%29.86 "Hg4 mi
12:00 PM70 °FClear.8 mph38%29.83 "Hg4 mi
11:30 AM70 °FClear.10 mph43%29.83 "Hg4 mi
11:00 AM70 °FHaze.8 mph43%29.86 "Hg3 mi
10:30 AM72 °FHaze.8 mph44%29.86 "Hg3 mi
10:00 AM72 °FHaze.8 mph44%29.86 "Hg3 mi
9:30 AM70 °FHaze.3 mph50%29.86 "Hg3 mi
9:00 AM68 °FHaze.1 mph56%29.86 "Hg2 mi
Weather by CustomWeather, © 2015

See weather overviewHow to use our weather pages